DH4SBM Weather Reports


Display with metric or nautical units.
time (UTC)temp
F
wind
direction
speed
MPH
gust
MPH
rain 1hr
in
rain 24hr
in
rain mn
in
humidity
%
barometer
mb
20260904090828 78 248 7.0 16.0 0.00 0.00 0.00 58 1018.7
20260904085828 78 225 7.0 14.0 0.00 0.00 0.00 58 1018.9
20260904084828 78 202 6.0 13.0 0.00 0.00 0.00 58 1019.1
20260904083828 77 202 6.0 15.0 0.00 0.00 0.00 59 1019.1
20260904082828 77 202 5.0 11.0 0.00 0.00 0.00 59 1019.1
20260904081830 76 202 5.0 11.0 0.00 0.00 0.00 60 1019.0
20260904080829 75 202 5.0 14.0 0.00 0.00 0.00 61 1019.0
20260904075829 74 225 6.0 14.0 0.00 0.00 0.00 62 1019.2
20260904074829 74 225 6.0 12.0 0.00 0.00 0.00 62 1019.2
20260904073829 73 225 7.0 18.0 0.00 0.00 0.00 63 1019.3
20260904072829 73 225 6.0 12.0 0.00 0.00 0.00 63 1019.4
20260904071829 72 225 6.0 13.0 0.00 0.00 0.00 65 1019.5
20260904070828 71 225 7.0 17.0 0.00 0.00 0.00 65 1019.6
20260904065828 71 225 5.0 12.0 0.00 0.00 0.00 66 1019.6
20260904064828 70 225 4.0 9.0 0.00 0.00 0.00 67 1019.6
20260904063828 70 202 3.0 6.0 0.00 0.00 0.00 68 1019.6
20260904062830 69 180 0.0 3.0 0.00 0.00 0.00 70 1019.7
20260904061829 68 0 0.0 0.0 0.00 0.00 0.00 71 1019.8
20260904060829 68 0 0.0 0.0 0.00 0.00 0.00 72 1019.8
20260904055829 67 0 0.0 0.0 0.00 0.00 0.00 72 1019.8
20260904054829 67 0 0.0 0.0 0.00 0.00 0.00 72 1019.7
20260904053829 66 0 0.0 0.0 0.00 0.00 0.00 71 1019.8
20260904052829 66 180 1.0 2.0 0.00 0.00 0.00 71 1019.8
20260904051828 66 180 1.0 3.0 0.00 0.00 0.00 71 1019.7
20260904050828 66 180 1.0 3.0 0.00 0.00 0.00 70 1019.6
20260904045828 66 180 1.0 3.0 0.00 0.00 0.00 70 1019.6
20260904044828 66 180 1.0 3.0 0.00 0.00 0.00 70 1019.7
20260904043828 67 180 2.0 4.0 0.00 0.00 0.00 69 1019.6
20260904042830 67 180 2.0 4.0 0.00 0.00 0.00 69 1019.7
20260904041829 67 180 2.0 5.0 0.00 0.00 0.00 69 1019.7
20260904040829 67 180 2.0 3.0 0.00 0.00 0.00 69 1019.8
20260904035828 67 180 2.0 5.0 0.00 0.00 0.00 68 1019.9
20260904034828 68 180 3.0 6.0 0.00 0.00 0.00 68 1020.0
20260904033828 68 180 2.0 5.0 0.00 0.00 0.00 68 1020.1
20260904032830 68 180 3.0 6.0 0.00 0.00 0.00 68 1020.0
20260904031829 67 180 4.0 7.0 0.00 0.00 0.00 68 1020.2
20260904030829 67 180 3.0 5.0 0.00 0.00 0.00 69 1020.2
20260904025829 67 180 2.0 4.0 0.00 0.00 0.00 69 1020.3
20260904024829 67 180 2.0 4.0 0.00 0.00 0.00 69 1020.4
20260904023829 67 158 1.0 5.0 0.00 0.00 0.00 69 1020.6
20260904022829 67 180 2.0 4.0 0.00 0.00 0.00 68 1020.7
20260904021828 67 202 2.0 6.0 0.00 0.00 0.00 69 1020.7
20260904020828 67 180 1.0 3.0 0.00 0.00 0.00 69 1020.8
20260904015828 67 180 2.0 3.0 0.00 0.00 0.00 69 1020.7
20260904014828 67 180 2.0 5.0 0.00 0.00 0.00 69 1020.7
20260904013830 67 180 3.0 7.0 0.00 0.00 0.00 68 1020.7
20260904012830 67 180 2.0 5.0 0.00 0.00 0.00 68 1020.8
20260904011829 67 180 2.0 3.0 0.00 0.00 0.00 68 1020.8
20260904010829 68 180 2.0 4.0 0.00 0.00 0.00 67 1020.7
20260904005827 68 135 1.0 3.0 0.00 0.00 0.00 67 1020.8
20260904004827 68 158 2.0 4.0 0.00 0.00 0.00 67 1020.9
20260904003829 68 180 2.0 4.0 0.00 0.00 0.00 65 1021.0
20260904002829 69 180 2.0 5.0 0.00 0.00 0.00 65 1021.0
20260904001828 69 202 3.0 6.0 0.00 0.00 0.00 65 1021.2
20260904000828 69 225 2.0 5.0 0.00 0.00 0.00 65 1021.3
20260903235828 69 202 2.0 5.0 0.00 0.00 0.00 64 1021.3
20260903234828 69 202 2.0 4.0 0.00 0.00 0.00 64 1021.5
20260903233828 69 202 2.0 3.0 0.00 0.00 0.00 64 1021.5
20260903233544 69 202 2.0 3.0 0.00 0.00 0.00 64 1021.5
20260903232544 69 202 3.0 4.0 0.00 0.00 0.00 64 1021.5
20260903231543 69 202 2.0 4.0 0.00 0.00 0.00 63 1021.5
20260903230543 69 225 2.0 4.0 0.00 0.00 0.00 63 1021.6
20260903225543 69 225 3.0 5.0 0.00 0.00 0.00 63 1021.6
20260903224543 69 225 4.0 6.0 0.00 0.00 0.00 63 1021.6
20260903223545 70 202 4.0 6.0 0.00 0.00 0.00 62 1021.5
20260903222544 70 225 4.0 7.0 0.00 0.00 0.00 62 1021.5
20260903221544 70 180 2.0 5.0 0.00 0.00 0.00 62 1021.5
20260903220544 70 202 2.0 5.0 0.00 0.00 0.00 61 1021.6
20260903215545 71 202 4.0 7.0 0.00 0.00 0.00 61 1021.6
20260903214544 71 225 3.0 6.0 0.00 0.00 0.00 60 1021.6
20260903213543 71 202 3.0 5.0 0.00 0.00 0.00 60 1021.5
20260903212543 71 180 1.0 4.0 0.00 0.00 0.00 60 1021.6
20260903211543 71 202 4.0 7.0 0.00 0.00 0.00 60 1021.5
20260903210543 71 248 2.0 5.0 0.00 0.00 0.00 60 1021.7
20260903205543 71 248 3.0 5.0 0.00 0.00 0.00 60 1021.8
20260903204543 71 248 2.0 4.0 0.00 0.00 0.00 60 1021.7
20260903203542 72 248 3.0 6.0 0.00 0.00 0.00 59 1021.6
20260903202542 72 225 3.0 7.0 0.00 0.00 0.00 59 1021.6
20260903201542 72 202 2.0 5.0 0.00 0.00 0.00 59 1021.5
20260903200542 72 202 3.0 5.0 0.00 0.00 0.00 59 1021.4
20260903195542 72 135 2.0 5.0 0.00 0.00 0.00 59 1021.6
20260903194544 72 135 1.0 4.0 0.00 0.00 0.00 59 1021.6
20260903193543 72 202 2.0 4.0 0.00 0.00 0.00 58 1021.7
20260903192543 72 225 2.0 3.0 0.00 0.00 0.00 58 1021.7
20260903191543 73 225 1.0 3.0 0.00 0.00 0.00 57 1021.5
20260903190301 73 225 2.0 5.0 0.00 0.00 0.00 56 1021.3
20260903185301 73 225 2.0 5.0 0.00 0.00 0.00 55 1021.3
20260903184301 73 225 3.0 5.0 0.00 0.00 0.00 55 1021.1
20260903183301 74 225 3.0 5.0 0.00 0.00 0.00 55 1020.9
20260903182301 74 225 3.0 5.0 0.00 0.00 0.00 54 1020.9
20260903181303 75 225 3.0 5.0 0.00 0.00 0.00 53 1021.0
20260903180303 75 225 2.0 4.0 0.00 0.00 0.00 52 1020.9
20260903175305 76 225 3.0 5.0 0.00 0.00 0.00 52 1020.8
20260903174302 76 248 3.0 5.0 0.00 0.00 0.00 51 1020.9
20260903173302 76 270 2.0 5.0 0.00 0.00 0.00 50 1021.1
20260903172306 77 248 3.0 8.0 0.00 0.00 0.00 50 1021.0
20260903171302 77 248 5.0 8.0 0.00 0.00 0.00 49 1021.0
20260903170302 77 248 6.0 12.0 0.00 0.00 0.00 48 1020.9
20260903165305 78 248 6.0 11.0 0.00 0.00 0.00 48 1020.9
20260903164302 78 248 6.0 10.0 0.00 0.00 0.00 48 1020.8
20260903163302 77 248 7.0 13.0 0.00 0.00 0.00 48 1020.8
20260903162305 77 270 8.0 14.0 0.00 0.00 0.00 47 1020.8
20260903161302 78 270 9.0 15.0 0.00 0.00 0.00 47 1020.9
20260903160302 78 270 9.0 16.0 0.00 0.00 0.00 46 1020.9
20260903155302 77 248 9.0 17.0 0.00 0.00 0.00 47 1020.8
20260903154301 77 270 9.0 16.0 0.00 0.00 0.00 47 1020.9
20260903153301 77 270 8.0 16.0 0.00 0.00 0.00 47 1021.1
20260903152301 78 270 8.0 14.0 0.00 0.00 0.00 47 1021.2
20260903151301 78 270 9.0 16.0 0.00 0.00 0.00 47 1021.2
20260903150303 78 270 8.0 15.0 0.00 0.00 0.00 47 1021.2
20260903145305 78 292 6.0 13.0 0.00 0.00 0.00 48 1021.4
20260903144302 78 292 8.0 14.0 0.00 0.00 0.00 48 1021.4
20260903143302 78 315 7.0 13.0 0.00 0.00 0.00 48 1021.3
20260903142305 78 292 8.0 14.0 0.00 0.00 0.00 47 1021.4
20260903141302 79 292 7.0 15.0 0.00 0.00 0.00 46 1021.3
20260903140302 78 270 8.0 16.0 0.00 0.00 0.00 48 1021.3
20260903135302 78 292 9.0 16.0 0.00 0.00 0.00 48 1021.4
20260903134302 78 292 7.0 12.0 0.00 0.00 0.00 48 1021.5
20260903133301 78 270 4.0 9.0 0.00 0.00 0.00 47 1021.6
20260903132301 78 270 8.0 14.0 0.00 0.00 0.00 47 1021.7
20260903131301 78 292 5.0 12.0 0.00 0.00 0.00 48 1021.7
20260903130301 78 292 6.0 12.0 0.00 0.00 0.00 48 1021.8
20260903125305 77 292 6.0 12.0 0.00 0.00 0.00 49 1021.9
20260903124303 76 270 6.0 11.0 0.00 0.00 0.00 50 1021.9
20260903123303 76 270 5.0 9.0 0.00 0.00 0.00 50 1021.8
20260903122300 76 270 6.0 14.0 0.00 0.00 0.00 51 1021.9
20260903121300 76 292 7.0 9.0 0.00 0.00 0.00 51 1022.0
20260903120300 73 270 7.0 3.0 0.00 0.00 0.00 54 1022.0
20260903115305 73 270 7.0 3.0 0.00 0.00 0.00 54 1022.1
20260903114301 73 270 7.0 3.0 0.00 0.00 0.00 54 1021.9
20260903113301 73 270 7.0 3.0 0.00 0.00 0.00 54 1022.2
20260903112301 73 270 7.0 3.0 0.00 0.00 0.00 54 1022.3
20260903111301 73 270 7.0 3.0 0.00 0.00 0.00 54 1022.6
20260903110302 73 270 7.0 3.0 0.00 0.00 0.00 54 1022.7
20260903105301 73 270 7.0 3.0 0.00 0.00 0.00 54 1022.7
20260903104301 73 270 7.0 3.0 0.00 0.00 0.00 54 1022.8
20260903103301 73 270 7.0 3.0 0.00 0.00 0.00 54 1023.0
20260903102301 73 270 7.0 3.0 0.00 0.00 0.00 54 1023.2
20260903101259 73 270 7.0 9.0 0.00 0.00 0.00 54 1023.3
20260903100301 73 270 7.0 11.0 0.00 0.00 0.00 54 1023.3
20260903095300 73 270 5.0 11.0 0.00 0.00 0.00 55 1023.4
20260903094300 73 270 6.0 12.0 0.00 0.00 0.00 54 1023.5
20260903093300 74 248 4.0 13.0 0.00 0.00 0.00 53 1023.4
20260903092259 73 270 4.0 9.0 0.00 0.00 0.00 55 1023.3
20260903091259 71 270 4.0 9.0 0.00 0.00 0.00 57 1023.6